Theta_e
312 312 311 311 313 315 317 316 319 319 318 321 322 319 316 318 321 318 318 319 316 329 343 344 344 340 341 345 347 345 345 349 348 348 352 350 346 346 342 344 346 345 347 344 342 342 341 341 339 338 337 334 330 329 328 330 330 327 326 322 319 318 321 323 323 323 325 330 334 334 332 330 328 326 324 322 319 318 318 316 319 329 334 336 329 313 311 311 309 309 309 310 314 316 316 319 319
312 312 310 313 315 317 318 316 320 321 319 317 317 319 319 319 320 319 319 319 317 329 345 346 344 345 344 343 342 344 345 345 344 346 348 345 345 345 342 345 345 345 346 344 342 341 341 340 339 338 337 333 329 329 328 330 330 328 326 324 320 318 318 318 320 320 321 326 332 333 332 331 331 329 331 329 321 318 318 316 319 327 332 331 322 311 312 311 310 311 314 318 323 324 324 326 323
312 311 311 315 316 318 319 317 320 321 319 316 315 317 317 316 318 318 317 318 317 322 335 345 346 345 345 348 346 345 346 343 344 346 345 344 345 343 343 344 343 345 344 341 340 339 340 339 339 338 337 333 329 329 329 330 330 328 326 325 322 318 317 317 318 319 320 323 329 333 335 336 335 335 336 334 326 320 318 318 318 320 325 325 318 312 314 313 313 316 321 324 326 326 325 328 325
311 312 313 317 317 318 321 321 323 322 320 318 315 316 317 316 316 317 316 318 319 319 326 341 348 345 347 353 349 346 347 344 345 346 344 344 344 342 341 341 342 344 340 338 338 338 338 339 339 338 337 333 329 330 329 330 330 329 327 325 323 319 317 318 318 320 322 323 326 331 334 336 336 337 336 332 328 324 321 322 320 321 324 323 316 314 318 317 318 322 325 325 324 325 324 325 324
312 314 316 318 319 320 321 321 323 320 317 318 317 317 320 318 317 318 319 318 320 324 324 337 352 347 347 349 346 348 349 345 345 345 344 344 343 341 339 337 340 340 337 335 335 336 337 338 338 338 337 332 329 330 330 330 331 330 329 326 324 320 317 318 318 321 328 327 328 330 331 333 333 334 332 329 328 325 323 324 323 325 325 323 315 315 320 320 324 327 325 324 324 324 323 323 323
314 317 318 319 318 318 320 320 323 320 316 318 317 318 320 318 318 318 319 318 320 332 332 339 350 347 347 348 345 347 347 346 346 346 345 344 342 341 338 335 336 335 334 333 333 335 337 338 337 338 337 333 330 329 330 331 331 332 331 328 325 322 318 319 318 321 329 330 331 332 330 332 331 330 328 326 326 324 323 322 323 324 319 318 316 317 320 321 325 326 323 324 323 324 324 324 324
316 319 319 320 317 316 321 324 323 320 318 319 319 319 318 317 318 317 319 318 319 335 343 344 345 349 351 347 347 346 346 348 346 346 345 344 342 341 338 335 333 332 332 332 334 335 337 337 337 337 336 333 329 329 330 331 332 332 332 330 326 324 319 319 319 321 327 330 330 331 330 331 330 330 329 328 327 324 324 321 321 321 316 316 316 318 320 320 322 322 323 325 324 325 324 323 322
316 318 317 320 321 316 321 323 320 318 319 318 317 318 318 317 317 317 319 317 318 326 341 348 343 352 354 346 349 348 346 347 347 347 346 344 342 340 337 334 332 331 331 333 334 336 337 337 337 337 337 334 329 329 330 331 332 333 333 331 327 325 321 319 320 323 327 329 330 329 330 331 332 332 332 332 330 327 325 321 319 320 317 314 314 316 317 319 320 322 324 325 325 325 324 321 321
316 317 315 319 320 316 320 319 316 316 318 317 315 315 314 315 314 316 316 316 318 317 333 347 343 353 353 345 348 347 346 347 347 348 347 345 342 340 337 333 332 331 331 333 335 336 336 337 337 337 337 335 331 329 329 331 332 333 334 332 327 323 323 322 321 325 327 327 328 328 329 331 331 330 329 330 327 324 323 320 317 319 317 313 314 315 317 320 322 324 325 325 323 322 322 320 321
316 316 314 319 319 317 319 316 315 315 315 315 313 313 313 314 313 314 314 314 318 314 329 344 343 350 349 346 348 346 347 347 348 349 348 346 341 340 336 332 332 332 331 332 334 335 336 337 337 337 337 335 332 329 329 330 332 333 335 333 327 323 325 325 323 326 327 327 327 327 326 326 326 325 325 327 324 321 320 319 317 318 317 314 315 317 319 323 324 326 326 325 323 320 319 319 321
315 313 314 320 321 317 318 316 316 316 314 314 313 314 314 315 313 312 313 314 315 316 333 346 347 348 347 348 347 346 347 347 348 349 348 347 340 338 334 331 332 332 331 332 333 335 336 336 337 337 337 336 334 330 328 330 332 334 335 335 327 322 326 325 325 329 330 329 327 325 324 324 325 325 326 327 327 325 322 320 319 318 317 316 317 319 322 325 327 327 327 324 322 320 319 318 320
313 314 319 324 323 318 318 318 317 317 316 316 317 315 314 315 312 315 314 312 321 331 340 346 346 347 348 348 347 346 347 347 348 347 348 346 340 334 332 331 332 332 331 331 332 335 336 336 337 337 337 337 335 331 329 330 333 334 336 336 327 320 323 324 324 328 329 328 328 328 328 328 328 327 328 327 328 328 327 325 323 321 319 316 318 322 325 329 330 329 328 325 322 321 321 319 319
313 314 321 321 319 320 319 318 318 319 319 316 316 314 315 313 313 320 315 317 336 345 346 344 345 347 347 347 346 346 346 347 347 346 345 343 337 332 332 333 333 332 331 331 331 334 335 337 337 337 337 337 336 333 330 330 333 334 336 335 324 319 322 324 325 327 328 328 329 330 332 332 330 330 329 328 328 329 330 329 328 325 323 319 317 321 327 331 332 330 329 327 324 324 323 321 320
313 312 319 318 315 319 317 316 317 317 317 315 313 314 314 312 321 329 325 336 345 345 345 344 344 347 349 347 345 345 344 345 345 344 341 338 334 331 332 334 333 332 331 330 330 332 335 337 337 337 337 337 336 333 330 332 333 333 336 332 321 321 323 324 327 329 330 331 332 332 331 332 333 332 330 329 328 328 330 330 330 327 325 323 319 320 326 331 332 331 330 330 328 326 325 324 322
313 312 319 318 315 317 314 314 316 315 316 315 313 313 313 314 333 341 337 345 346 342 344 344 344 347 350 348 346 346 345 344 344 343 338 334 331 332 334 334 333 332 330 329 329 331 333 336 337 337 337 337 337 334 332 333 333 334 336 329 320 324 326 327 331 332 332 332 333 332 331 331 332 332 331 330 328 327 327 327 328 324 320 322 322 320 324 330 332 332 332 331 331 328 325 325 325
313 314 319 318 317 317 314 313 314 315 316 315 313 312 312 314 331 345 342 342 345 345 345 345 345 344 345 346 346 347 347 345 344 341 337 332 331 333 334 333 333 331 330 329 330 332 333 335 337 338 337 337 337 335 332 332 333 335 335 326 321 328 329 330 333 333 333 333 333 332 331 330 331 331 330 328 324 322 321 320 321 319 316 317 320 320 321 325 330 332 332 332 332 329 325 326 327
313 316 320 317 317 317 314 315 315 316 317 315 313 311 313 313 319 338 345 343 345 347 344 346 346 342 344 346 346 347 347 344 342 340 335 331 332 334 335 334 333 332 332 331 332 332 333 335 337 337 337 338 337 336 333 332 332 336 334 323 323 331 331 332 333 333 333 332 333 332 331 329 328 328 327 324 320 320 319 319 319 318 318 317 317 319 319 321 324 329 332 332 333 331 327 327 329
315 319 320 317 316 316 315 317 315 314 315 313 311 311 313 313 312 323 341 345 344 345 344 346 346 344 346 347 347 347 345 342 340 338 333 332 335 336 337 336 336 334 333 333 332 332 331 334 337 337 337 338 337 336 334 333 334 336 331 322 326 333 332 333 332 332 333 332 332 331 330 329 326 325 326 324 321 320 320 320 320 319 320 319 318 317 318 318 320 323 326 329 332 333 329 328 330
316 316 317 317 317 314 312 314 312 311 313 311 311 312 311 314 312 314 337 346 344 347 347 345 347 347 347 347 347 345 342 339 338 336 334 335 336 336 337 337 336 334 332 332 333 333 332 334 336 336 336 337 337 335 334 333 335 335 327 320 328 334 333 333 332 331 332 332 331 330 330 328 326 326 327 326 322 321 321 321 321 320 320 320 320 319 318 317 318 319 320 322 327 331 330 328 330
316 315 317 317 315 313 311 311 312 312 313 310 310 312 311 314 312 318 340 346 346 350 347 346 347 348 347 346 345 344 341 338 336 335 335 336 336 336 337 337 335 334 332 331 333 333 333 333 335 336 336 337 336 335 334 333 335 333 324 321 329 333 333 333 332 332 332 331 330 329 329 327 326 327 327 326 324 322 321 322 321 321 321 320 321 320 319 318 317 317 317 318 321 327 330 330 331
315 317 320 316 311 313 313 312 313 314 313 311 311 311 312 313 313 324 340 346 349 348 343 346 347 348 347 345 345 343 341 339 337 335 335 335 336 337 336 337 335 334 333 331 333 335 334 334 335 335 336 337 336 335 333 333 335 330 321 323 330 332 332 333 332 332 331 328 328 327 327 326 326 326 326 326 325 323 322 322 322 321 321 321 321 320 320 320 318 316 316 317 318 321 326 330 331
314 316 316 314 312 313 314 313 315 316 313 311 310 312 313 313 313 319 334 345 348 343 341 345 347 347 347 345 345 343 341 341 337 335 336 335 336 337 336 337 335 333 332 331 334 335 333 333 334 334 335 336 335 335 333 334 335 328 321 325 331 332 333 332 331 330 328 326 325 326 327 325 325 327 327 326 325 324 323 322 322 322 321 320 320 320 320 320 319 317 317 317 317 318 321 326 330
315 316 314 313 314 312 313 315 316 316 313 311 311 313 312 311 312 312 323 335 335 335 340 344 346 347 346 346 345 344 343 342 337 335 338 337 336 338 337 336 334 333 332 331 333 333 332 332 333 332 333 335 335 334 333 334 335 326 322 328 332 332 333 331 330 328 326 325 325 326 326 325 325 327 327 326 326 324 323 322 323 322 322 321 320 320 320 320 319 319 319 318 318 319 319 323 327
316 317 315 314 315 313 314 316 316 315 312 312 312 312 311 311 312 312 318 321 323 333 340 343 345 347 346 345 346 345 344 343 338 336 340 339 336 337 337 337 334 334 333 332 332 332 332 331 331 331 332 334 334 334 333 335 334 326 323 330 332 332 333 331 329 327 324 324 325 326 326 325 325 326 327 326 326 325 324 324 326 325 324 325 323 321 321 322 321 321 322 321 322 322 321 322 323
316 317 314 314 316 315 316 315 314 314 313 313 312 311 311 311 311 314 316 314 322 336 341 344 345 346 346 345 345 345 344 344 340 339 341 340 336 336 337 336 335 335 334 333 333 332 332 330 331 332 332 332 333 333 333 335 333 326 323 329 332 332 332 331 330 326 323 323 325 326 326 325 325 325 326 327 327 327 327 327 329 328 327 327 327 326 325 324 324 324 324 323 324 325 324 324 324
315 315 314 314 315 315 315 313 312 313 312 312 311 311 311 311 312 313 316 319 329 341 345 345 345 345 346 344 344 345 344 343 341 340 342 341 338 336 337 335 334 336 335 333 334 333 332 331 331 333 332 332 332 332 333 333 331 325 323 328 331 332 332 331 330 326 323 323 325 327 326 325 326 325 326 327 327 327 327 328 329 328 328 327 327 328 328 327 327 326 326 325 326 326 326 326 326
314 314 313 313 313 312 311 311 312 312 311 311 310 313 312 310 313 313 320 333 339 345 346 345 346 345 345 344 345 345 344 343 341 341 342 342 339 336 338 337 334 336 335 334 335 334 334 332 332 332 332 332 332 332 332 331 329 324 323 327 330 332 332 330 329 326 323 323 326 328 326 325 325 325 326 327 327 327 326 326 327 327 327 327 327 328 328 327 327 327 327 327 327 327 327 327 327
313 312 311 311 310 309 310 309 311 311 311 313 310 313 311 309 314 311 322 340 345 346 346 346 346 346 345 344 345 345 344 342 340 341 342 341 338 337 339 338 336 336 336 335 335 335 334 334 333 333 332 332 332 332 331 330 328 325 322 326 330 331 331 329 328 326 323 323 325 327 326 324 324 324 326 327 327 326 325 325 326 326 325 327 327 327 327 327 327 327 328 328 327 327 327 327 328
311 311 311 313 312 311 311 309 311 311 311 313 311 313 314 314 314 312 328 344 347 346 346 347 346 346 345 344 345 345 344 342 340 340 341 340 338 337 339 338 337 336 336 335 335 335 335 334 334 334 333 332 332 332 332 330 328 326 323 325 330 331 331 329 327 325 323 323 325 326 325 324 325 325 326 327 326 325 325 324 325 326 326 326 327 327 327 328 328 327 327 327 327 327 327 328 328
312 311 310 313 314 314 311 308 310 309 311 313 311 313 318 321 314 315 337 346 346 347 346 347 346 346 345 344 344 345 344 343 340 340 340 339 339 339 340 339 336 336 336 336 336 335 335 335 334 334 334 333 332 333 333 331 330 328 325 326 329 331 331 329 327 325 323 323 324 325 325 326 326 327 326 326 326 325 325 324 325 326 326 326 327 327 328 328 328 327 326 326 326 328 328 328 328
313 311 312 312 312 317 313 308 311 311 312 312 311 314 317 322 312 314 341 347 344 346 345 347 346 345 345 344 343 344 344 343 341 341 341 340 339 339 340 338 337 336 337 336 335 335 335 335 335 335 334 334 333 334 333 332 332 330 328 328 330 332 331 329 327 326 324 324 325 325 326 327 327 327 327 326 326 326 326 325 324 325 325 326 326 327 328 327 327 327 326 325 325 327 328 327 328
316 312 315 316 311 315 315 309 310 312 313 311 311 315 314 319 313 312 337 347 344 345 345 347 346 345 345 343 343 343 343 343 341 340 341 341 340 340 340 339 338 337 337 336 336 335 335 335 335 335 334 334 334 334 333 332 332 331 330 330 331 332 330 329 327 326 325 325 326 327 328 328 327 327 327 327 326 326 326 326 325 326 325 326 326 326 327 327 327 327 326 325 326 326 326 327 327
320 313 314 318 313 313 314 311 309 308 311 312 311 315 314 318 314 309 332 347 344 344 345 345 346 345 344 343 342 342 341 342 341 341 341 340 340 340 340 339 339 337 336 336 336 335 335 335 335 335 335 334 334 334 333 332 332 332 331 331 331 331 331 329 327 326 326 326 326 327 328 328 328 328 328 328 328 327 327 328 327 326 326 326 326 326 326 326 326 326 325 325 325 325 326 326 327
321 316 314 318 315 312 314 313 310 308 311 313 311 313 314 317 314 307 323 344 343 343 345 345 346 345 344 343 342 341 341 342 343 342 341 340 340 340 340 339 337 338 337 336 337 336 336 336 336 336 335 334 334 334 333 332 332 332 332 331 331 330 330 329 326 326 327 327 327 328 328 328 328 328 328 328 328 328 328 328 328 327 327 327 327 326 326 326 326 325 324 325 325 326 326 326 327
317 315 315 317 316 313 313 313 312 311 312 314 313 314 315 316 315 307 313 336 344 343 343 344 345 345 344 343 342 341 341 342 342 343 342 341 340 340 341 340 337 338 338 338 338 338 337 337 336 336 336 335 334 334 333 333 333 332 331 330 330 329 329 328 326 326 327 327 327 327 328 328 328 329 329 328 328 329 329 328 328 327 327 327 326 326 326 326 326 324 324 325 325 326 327 327 327
314 312 313 315 314 312 311 312 312 311 312 314 313 314 317 315 316 312 308 325 340 341 342 343 344 345 344 343 342 341 341 342 341 341 342 341 341 341 341 341 339 339 339 340 340 338 338 337 336 336 336 335 335 334 333 332 332 330 330 329 329 329 328 327 327 327 327 328 328 328 328 328 328 329 329 329 329 329 329 328 328 327 327 327 327 327 326 326 326 325 325 326 326 327 327 327 327
311 312 313 313 312 311 310 311 312 311 311 317 317 315 317 315 317 315 308 317 332 336 339 342 343 345 344 342 342 341 340 340 341 341 342 342 341 341 341 341 341 340 340 341 340 339 339 337 335 335 334 334 334 333 333 331 330 330 328 328 329 329 328 327 327 328 328 328 329 328 328 328 328 329 328 328 328 329 329 328 328 328 328 328 328 327 326 326 326 325 325 326 327 327 327 327 327
311 312 313 313 312 311 310 310 312 311 312 320 320 316 317 317 317 315 311 317 327 330 335 340 343 344 344 343 341 340 340 339 340 341 342 342 342 342 342 341 341 340 340 340 339 339 338 336 334 334 333 332 332 331 330 330 330 329 328 328 329 328 327 328 328 328 329 329 328 327 327 328 328 327 326 326 327 328 329 328 328 328 328 328 328 326 326 326 326 325 325 325 327 327 327 327 327
313 312 313 313 312 312 311 312 313 312 313 319 320 316 316 316 315 315 313 315 319 323 330 337 341 343 343 343 341 340 338 338 339 340 341 341 341 342 342 341 340 340 339 338 338 338 337 335 333 333 332 331 330 329 329 330 329 329 328 328 328 327 328 329 329 329 329 328 327 327 327 326 326 325 325 325 326 326 328 328 328 327 327 327 326 326 326 326 326 326 325 325 327 327 328 328 327
315 314 313 313 312 311 314 315 316 315 315 317 317 315 317 316 316 317 312 310 310 315 325 332 337 341 342 341 341 339 338 338 339 339 340 341 341 341 341 340 339 337 338 337 337 337 335 334 332 332 332 330 329 329 329 330 329 329 329 328 328 328 329 329 330 329 328 326 326 327 327 326 326 325 325 326 325 326 327 327 326 326 326 326 325 325 325 325 325 326 325 325 327 327 327 328 328
318 316 313 312 312 312 313 313 315 318 320 318 315 317 322 322 322 321 315 311 309 309 318 328 335 339 340 340 340 339 338 338 339 339 340 341 341 340 340 338 334 332 332 333 334 335 334 332 332 332 331 330 329 329 330 330 330 329 329 329 329 329 330 329 329 326 325 325 327 327 326 326 326 326 325 326 326 327 326 325 325 325 325 324 325 324 324 322 323 325 326 325 326 327 327 328 328
318 318 315 312 312 313 313 312 313 318 323 320 315 319 327 326 324 322 317 320 320 314 316 324 333 338 339 339 340 338 338 338 338 339 339 340 340 340 339 336 331 331 331 330 332 334 333 331 332 332 330 329 329 330 331 330 329 329 328 329 329 328 329 328 326 324 323 324 326 326 326 326 326 326 325 326 326 326 325 325 325 325 325 325 325 325 324 323 323 325 326 325 326 327 327 328 328
315 319 319 313 312 313 312 312 314 319 322 318 315 318 322 322 323 320 319 328 334 327 324 325 331 338 338 339 339 338 338 338 338 339 339 340 340 339 338 334 330 332 334 334 333 333 332 331 331 331 330 329 330 330 330 329 328 328 329 328 328 328 328 326 324 324 323 325 326 326 326 326 326 326 326 325 325 325 325 325 325 325 326 326 326 326 325 324 324 326 326 325 326 326 326 327 328
315 320 320 315 313 313 313 313 315 319 321 321 322 319 316 320 322 320 322 334 337 334 333 330 331 336 338 338 338 337 338 338 338 339 339 340 339 338 336 334 330 329 333 334 333 333 332 331 331 331 330 330 331 330 329 328 326 327 329 329 328 328 328 324 323 324 323 324 326 326 325 325 325 325 326 326 325 324 324 325 325 325 326 325 326 326 326 325 325 326 326 325 325 325 325 326 327
316 320 318 314 313 313 313 314 317 319 316 319 324 318 314 324 330 326 328 339 341 335 334 332 333 335 337 339 338 337 337 337 338 338 339 339 339 336 334 333 331 330 332 333 333 333 332 331 331 331 332 332 331 330 328 327 327 327 329 329 328 328 327 325 324 325 324 323 324 324 323 322 322 322 323 323 323 323 322 323 324 324 325 325 325 325 326 326 325 326 326 325 325 324 324 324 325
315 317 315 313 316 317 315 316 318 317 315 316 321 319 314 323 335 335 335 340 337 332 329 330 334 336 337 338 337 337 336 336 338 338 338 338 337 334 333 334 334 332 333 334 333 333 332 332 330 331 332 333 332 330 328 327 328 329 329 329 328 328 327 326 326 325 324 322 322 322 321 320 318 318 318 318 317 316 315 317 319 321 324 325 325 325 325 325 325 325 326 326 325 324 324 323 323
311 313 314 314 318 320 320 322 320 316 317 317 319 322 317 318 329 332 332 334 330 327 327 330 335 337 338 338 337 337 337 335 337 338 338 338 337 335 335 335 335 334 333 333 333 333 333 332 331 331 332 333 332 331 329 329 329 330 330 328 327 326 326 326 325 323 322 322 321 321 319 318 317 317 317 316 315 311 310 313 317 319 322 323 324 325 325 325 325 325 325 324 325 325 324 324 323
311 315 317 316 319 319 319 325 321 315 320 321 319 320 316 317 328 328 327 329 328 327 326 329 335 337 337 338 337 336 336 335 336 336 334 333 333 334 335 335 335 334 333 333 333 333 333 333 331 331 331 331 332 331 330 329 329 330 329 327 326 326 325 325 322 319 320 319 318 317 316 316 317 318 318 318 316 314 312 315 318 318 319 321 322 322 324 325 325 324 324 322 323 323 323 324 323
310 316 317 315 318 317 318 323 320 317 322 321 318 318 316 321 327 327 328 329 330 328 325 328 335 337 336 336 335 335 335 333 333 332 330 329 331 332 332 334 334 334 333 333 333 333 333 333 332 331 330 331 332 332 329 328 328 329 328 326 326 326 326 324 321 317 316 315 313 314 314 315 317 318 320 319 318 317 316 318 320 320 320 321 321 320 321 324 325 324 323 322 323 323 323 323 324
311 313 316 317 318 317 320 323 318 318 321 317 314 315 318 326 327 326 329 329 330 329 327 331 336 335 335 333 332 332 329 328 328 329 330 331 332 332 331 332 333 333 332 332 333 333 332 333 332 332 331 331 333 331 328 326 327 328 327 325 326 326 327 326 323 318 313 311 312 312 313 316 318 319 320 320 319 319 319 319 320 321 322 322 322 320 319 323 324 324 323 322 322 323 323 323 324
310 312 314 316 322 322 322 323 319 317 320 319 318 316 320 330 331 328 330 329 329 330 330 332 333 332 332 330 328 327 324 325 327 329 330 331 332 332 331 331 331 331 330 329 330 331 331 332 332 332 332 331 333 332 329 327 328 327 325 326 327 327 327 327 324 316 312 312 313 313 316 318 320 320 320 319 320 320 320 320 320 321 322 322 322 321 320 322 323 322 322 321 321 321 322 322 323
312 312 314 314 321 324 321 320 320 320 322 322 322 323 323 327 330 327 328 330 330 330 329 329 329 328 328 326 325 325 325 325 324 327 329 328 329 330 330 329 328 328 328 327 328 329 329 330 331 331 331 331 333 332 330 329 329 327 327 329 329 328 328 327 322 315 314 315 315 315 317 319 320 320 319 318 319 320 320 321 322 321 322 323 322 321 319 320 321 321 320 320 320 321 321 322 322
315 312 315 315 315 320 321 317 316 319 321 319 321 328 327 325 327 327 328 330 330 329 328 327 327 326 326 326 326 325 326 326 325 326 327 326 328 329 329 328 328 328 327 327 328 328 329 330 330 330 330 331 332 329 328 328 327 328 330 330 329 329 328 325 319 316 316 315 314 315 317 320 321 321 321 320 319 318 318 320 322 321 321 321 321 320 318 317 318 319 318 318 320 321 321 322 322
318 315 316 314 311 317 324 323 321 319 319 322 324 331 332 327 330 331 329 331 330 329 328 326 325 326 325 326 327 324 325 326 326 326 327 327 328 328 328 327 327 328 328 327 328 329 331 331 330 330 330 330 330 327 324 323 324 327 330 330 329 329 326 321 318 317 317 314 314 315 318 321 322 322 322 322 320 317 314 316 319 319 319 320 320 320 317 316 317 317 317 319 321 322 322 322 322
316 318 316 315 317 321 319 321 324 319 319 326 325 325 328 329 332 333 329 330 331 329 327 326 325 325 325 325 326 326 326 327 327 327 327 327 327 327 327 327 327 327 327 327 328 329 332 332 330 329 328 327 327 326 324 324 325 328 330 329 328 326 323 321 319 318 317 315 314 316 319 321 321 322 322 322 320 316 312 312 314 315 315 317 319 318 315 315 317 317 319 321 322 322 322 322 322
311 314 312 316 325 326 319 318 322 320 322 326 325 325 330 331 328 327 326 327 329 328 327 327 326 326 326 326 327 328 328 328 327 327 327 327 326 326 326 327 327 326 326 326 327 329 331 331 329 327 326 326 327 326 325 327 328 328 329 328 326 325 325 323 320 317 316 314 315 317 320 321 322 322 321 320 318 312 308 308 310 311 312 313 317 317 315 316 318 319 321 322 323 322 322 321 321
312 314 315 318 322 320 319 318 317 321 325 325 326 331 335 330 324 323 325 325 327 328 326 327 326 326 326 326 327 328 327 327 328 327 327 326 327 326 325 327 327 326 325 325 326 328 328 329 329 327 326 327 328 326 324 326 328 327 327 327 325 326 326 325 320 314 313 313 315 318 319 321 322 322 320 318 313 307 305 306 307 308 308 311 315 316 314 316 319 320 321 322 322 322 322 321 320
316 320 321 324 325 320 320 319 316 320 324 325 328 335 336 328 322 323 324 324 326 326 325 325 325 325 326 326 327 327 326 327 327 327 327 327 327 326 325 326 325 326 327 326 327 327 328 329 329 328 326 326 328 327 324 326 327 326 326 326 326 326 327 325 318 311 311 314 316 317 318 319 320 321 320 314 308 305 305 305 305 306 307 311 315 315 313 314 316 318 320 321 322 321 320 320 320
Wind_Speed
9 9 10 12 12 12 8 6 2 2 2 1 4 1 4 5 2 3 4 2 2 3 5 8 4 4 4 3 7 9 6 4 4 3 4 5 19 27 28 27 28 32 31 30 31 30 27 26 24 23 23 22 21 20 19 18 17 16 15 15 15 16 17 18 19 20 21 21 20 19 18 16 15 14 13 12 12 13 13 14 15 17 17 17 15 17 18 17 18 17 17 16 15 15 14 14 15
10 11 12 12 12 9 5 3 2 2 3 3 4 4 4 2 2 5 4 3 2 5 7 7 5 3 3 6 9 9 6 2 3 4 8 17 26 28 27 27 29 31 31 30 31 30 28 26 25 24 24 22 21 20 19 18 17 16 15 15 15 15 16 17 18 19 20 20 20 18 17 16 15 14 14 12 12 13 14 14 16 17 17 16 16 18 18 18 18 17 17 17 16 15 14 14 14
11 12 13 13 10 7 4 3 1 1 2 4 5 4 3 2 6 4 4 6 6 12 10 8 5 4 4 3 5 4 3 2 6 12 16 23 28 29 27 26 28 29 28 28 30 30 28 27 25 24 24 23 21 20 19 18 17 15 15 14 14 14 16 17 18 18 18 20 21 19 17 16 16 15 15 13 12 13 13 14 16 16 16 16 17 19 18 18 18 17 17 16 15 15 14 14 15
12 13 13 12 8 5 4 2 2 4 2 4 4 5 3 4 5 2 5 8 12 19 13 7 4 4 5 2 4 4 4 3 10 18 22 24 27 29 27 26 28 28 27 27 29 28 28 27 26 25 24 23 21 20 20 18 17 15 14 14 14 14 15 17 18 18 17 18 20 20 18 17 17 16 15 15 13 13 13 14 15 16 16 16 19 20 19 18 18 17 16 15 15 14 13 14 17
13 13 12 9 5 2 3 2 2 3 4 4 2 5 4 5 4 4 9 14 19 20 12 6 2 3 6 5 4 3 5 6 14 20 25 26 26 28 26 27 28 28 27 27 27 27 27 27 26 25 25 24 22 21 20 18 16 15 13 14 14 14 15 16 18 18 18 17 17 18 18 17 17 16 15 15 13 12 13 13 14 15 16 17 20 21 19 19 18 17 16 15 14 13 13 14 18
14 13 10 6 4 2 3 2 2 3 5 4 2 6 5 5 4 7 13 19 18 10 6 7 2 2 4 6 6 6 6 6 16 22 27 28 27 27 26 27 27 27 27 27 27 27 27 27 26 25 26 25 23 22 20 18 16 14 13 13 14 14 15 16 17 18 18 17 17 17 17 16 16 15 13 13 12 11 11 11 13 14 15 17 21 21 19 19 18 17 16 15 13 13 12 14 18
14 11 6 5 4 2 3 2 4 4 4 5 4 7 7 6 6 9 12 14 11 3 4 6 7 6 3 4 5 5 1 4 18 23 27 28 27 26 25 27 27 27 26 27 27 27 27 26 26 26 26 25 23 22 20 18 16 14 13 13 14 14 15 15 16 17 18 17 17 16 16 15 14 13 12 12 12 11 10 10 12 13 14 17 21 20 19 19 17 17 15 14 13 12 11 13 17
14 7 4 4 2 2 3 2 4 3 4 5 5 9 12 11 10 9 7 5 7 4 3 9 11 6 1 1 1 1 1 5 17 24 27 27 27 26 26 27 27 27 26 27 26 26 26 26 26 26 26 25 23 21 20 18 16 14 13 12 13 13 13 14 15 16 17 16 16 16 15 14 13 12 11 10 10 10 10 10 10 12 14 16 20 20 19 18 17 16 15 14 13 11 10 12 16
12 5 4 3 1 2 2 3 4 3 5 6 6 12 16 18 14 9 7 6 8 8 4 11 8 3 4 3 1 3 3 7 16 24 27 26 26 25 25 27 26 26 26 26 26 25 26 26 26 26 26 24 22 21 20 18 16 14 12 11 11 12 13 14 15 16 17 16 15 15 14 13 13 11 10 9 9 9 9 9 10 12 14 16 19 19 19 18 18 16 15 14 12 10 9 10 14
9 4 3 3 2 1 4 3 3 3 5 5 8 17 20 20 16 10 9 8 10 9 6 11 5 6 10 5 3 4 4 9 18 25 26 25 26 26 26 27 26 25 26 26 25 26 26 27 26 26 25 23 22 20 19 18 16 13 12 11 11 11 13 14 15 16 17 16 15 14 14 13 12 12 11 10 10 10 10 10 11 13 15 17 20 20 19 19 18 17 16 14 11 10 8 8 12
5 2 4 4 3 1 4 4 4 4 6 4 11 19 16 17 16 10 8 8 12 10 8 11 6 10 11 4 4 4 6 13 20 25 26 26 26 28 28 29 28 25 26 26 25 26 27 27 26 26 24 23 21 20 19 18 16 13 12 11 10 12 14 14 15 16 16 16 15 14 14 13 13 13 12 12 12 11 10 11 12 15 18 19 21 21 20 20 19 18 16 14 12 10 8 7 9
2 1 4 4 2 3 4 3 5 5 7 4 8 11 13 17 14 8 7 7 10 8 11 13 10 13 8 3 5 6 10 16 20 24 26 26 26 28 28 27 27 25 24 25 26 27 27 27 27 26 24 22 21 19 19 18 16 14 12 11 10 11 13 14 15 15 16 15 14 13 13 13 13 13 13 13 13 12 11 11 12 15 19 19 21 22 22 22 20 19 17 15 13 11 9 7 7
3 2 5 2 3 2 3 2 4 5 6 4 5 8 18 17 13 10 8 6 9 7 10 15 15 13 6 4 7 10 14 19 21 23 24 25 26 27 27 26 25 24 24 25 26 27 27 28 28 26 24 22 20 19 18 18 16 14 12 11 10 12 13 14 14 15 15 15 14 14 14 14 14 14 14 13 13 13 12 12 12 14 17 18 20 22 23 23 21 19 18 16 14 12 10 7 6
4 4 4 2 2 1 3 2 3 2 4 5 2 11 20 15 14 12 6 1 5 6 9 14 19 12 6 6 7 15 19 21 23 23 25 25 27 27 26 26 25 26 25 26 26 26 28 28 28 26 25 23 21 20 19 18 16 14 12 11 11 13 14 14 15 15 15 15 15 14 14 13 14 14 14 13 12 13 13 13 12 12 15 18 19 21 23 23 22 21 19 17 14 12 10 8 7
6 3 4 2 1 2 2 3 2 2 4 4 2 13 18 17 16 13 9 2 2 5 11 14 18 8 7 11 8 22 25 24 25 23 26 26 27 27 26 27 26 27 26 26 26 26 27 28 28 27 25 24 22 21 20 19 16 14 12 11 12 14 14 15 15 15 15 14 14 14 13 12 12 13 12 11 11 11 12 13 12 12 14 18 19 20 22 23 23 22 20 18 15 13 11 10 8
6 3 4 2 2 3 3 3 2 2 4 4 5 16 15 17 16 14 10 0 4 10 11 11 16 3 8 14 12 28 28 24 26 24 27 26 28 27 26 27 27 27 26 26 25 25 27 27 28 26 25 24 23 22 21 20 17 15 13 12 13 15 15 15 15 14 14 14 13 14 14 13 12 12 11 10 11 11 12 11 11 11 13 15 18 20 22 23 23 22 21 19 17 15 13 11 10
6 3 4 0 3 4 3 4 4 3 6 6 10 18 10 13 16 12 7 5 7 9 6 7 13 3 8 11 12 30 28 25 26 24 27 28 28 26 24 25 24 25 23 23 23 23 26 27 28 25 25 24 23 23 21 20 17 16 14 14 15 15 16 15 15 15 14 14 13 13 13 12 12 11 11 11 11 12 11 11 11 11 11 12 15 17 20 22 22 22 22 20 19 18 16 14 12
6 3 3 2 4 4 4 6 5 3 4 7 13 17 7 9 17 12 3 4 4 4 4 6 7 3 10 10 17 32 27 27 27 26 29 26 24 21 20 20 20 21 21 22 22 23 25 27 27 25 25 24 24 23 22 21 19 17 15 16 17 16 16 16 15 15 14 13 12 13 12 11 11 11 11 11 11 11 11 11 10 10 10 11 12 14 16 19 21 22 22 21 20 19 17 16 14
5 3 2 5 5 5 5 5 3 3 6 11 15 14 9 11 15 12 4 1 3 1 4 8 9 10 14 16 26 32 26 27 25 25 25 21 21 19 19 18 18 21 22 23 22 23 25 27 27 25 25 25 24 23 23 21 19 18 16 17 18 16 16 15 14 14 14 13 13 12 12 11 11 11 11 10 10 10 10 9 9 8 8 9 9 11 12 15 17 19 20 20 21 20 19 17 16
5 4 2 7 5 4 6 6 8 10 12 11 13 14 13 17 15 9 3 1 1 2 4 7 13 18 21 25 31 30 27 28 25 24 22 19 19 18 19 18 19 21 23 24 23 23 25 26 26 25 25 25 25 24 23 22 19 17 17 17 17 16 15 14 13 13 14 13 12 12 11 11 11 11 11 10 9 8 8 7 7 6 6 6 7 7 8 10 13 16 18 19 21 21 21 19 18
4 5 5 5 3 2 6 7 11 16 16 10 12 15 14 17 14 7 1 2 2 8 12 7 14 25 28 30 31 30 31 31 31 29 28 28 23 20 20 20 21 22 23 23 22 23 24 26 25 25 25 26 26 24 23 22 19 18 17 18 16 16 15 14 13 13 13 12 12 12 11 10 10 10 10 9 8 7 6 6 6 5 5 5 5 6 6 7 9 11 13 17 19 22 22 21 20
2 6 11 8 3 3 5 9 14 19 18 12 10 10 11 15 14 10 3 5 5 5 10 8 17 27 29 33 33 32 32 33 36 33 32 34 27 25 24 22 23 24 24 23 23 23 24 25 25 24 25 26 26 24 23 21 19 18 18 18 16 15 14 13 13 12 12 11 11 11 10 10 9 9 9 9 9 7 6 6 5 5 3 3 4 5 5 5 7 8 10 13 17 20 21 21 20
2 6 11 11 10 6 8 14 19 21 16 11 10 10 13 13 14 14 8 12 12 7 3 11 21 26 29 33 35 35 33 34 37 35 33 32 28 28 28 26 27 26 26 24 24 24 23 24 24 24 25 26 25 24 23 21 19 18 18 17 16 15 13 12 12 11 12 12 12 11 10 9 9 10 10 9 9 8 6 6 5 4 3 2 3 4 4 5 6 8 9 12 14 17 18 19 19
5 6 5 8 11 10 13 17 19 21 17 16 17 13 13 10 10 11 8 15 18 8 4 14 24 27 29 32 35 35 34 34 35 34 33 30 27 25 25 27 29 28 27 25 25 25 24 24 23 23 23 24 24 24 23 21 19 18 18 17 15 14 12 11 11 11 12 12 12 11 11 9 10 10 10 9 9 8 7 7 6 5 5 3 4 4 5 5 6 8 10 11 13 13 14 16 18
6 7 6 8 11 13 15 16 18 22 21 21 16 11 15 13 9 8 12 17 14 7 8 19 27 30 32 32 34 34 33 34 33 32 30 27 26 24 24 29 31 30 28 28 26 25 24 23 23 22 22 23 23 24 23 20 18 18 18 17 15 14 11 11 11 11 13 13 12 11 11 10 10 10 9 8 9 9 8 8 7 6 6 4 4 5 5 5 6 8 9 10 11 11 11 12 14
6 8 8 8 11 15 15 14 17 19 20 17 8 10 16 10 4 7 13 12 6 10 16 24 29 32 33 31 32 33 33 34 32 31 27 25 27 23 24 30 32 30 29 28 27 25 25 24 24 23 22 22 22 23 22 20 18 18 18 16 15 14 11 12 12 12 12 12 11 11 11 10 10 9 8 8 9 9 8 8 8 7 6 6 5 5 5 5 6 7 8 10 10 10 9 10 10
6 8 10 11 14 16 12 10 15 16 16 15 7 10 11 1 1 5 8 4 10 17 22 26 29 32 32 31 31 31 33 33 31 29 25 26 29 22 23 30 31 29 27 25 26 25 25 25 24 23 23 23 22 22 21 20 18 17 17 16 14 13 12 12 12 12 12 12 11 11 10 9 10 9 9 8 8 8 7 7 7 7 7 7 7 6 6 5 6 7 8 9 10 9 9 9 9
8 9 8 11 12 12 9 9 14 10 9 14 8 8 8 2 3 8 7 9 16 23 26 26 29 31 30 29 30 31 33 32 29 28 27 29 30 26 27 32 32 30 27 25 25 26 27 26 24 24 24 23 22 21 20 19 17 17 17 16 14 13 12 12 12 12 13 12 11 11 9 9 9 9 8 8 7 6 5 6 6 7 7 7 7 7 7 5 4 6 7 8 9 10 9 9 9
8 7 4 8 8 7 7 7 10 5 4 11 4 4 9 2 6 8 8 15 20 24 27 25 27 30 30 29 30 32 32 31 28 27 28 30 29 27 28 31 33 33 30 27 27 27 27 26 25 25 24 23 22 20 19 18 17 17 16 15 14 13 13 12 12 12 13 12 11 10 9 9 8 8 7 7 6 5 4 4 5 6 6 7 7 7 7 5 4 4 6 7 8 10 10 9 9
6 3 1 5 7 6 6 2 3 1 5 9 4 3 8 6 10 6 13 21 23 24 25 25 25 29 30 30 31 32 31 29 27 27 29 30 29 28 29 31 33 31 29 29 29 28 27 26 25 24 24 23 22 20 19 18 17 17 16 15 14 13 13 12 12 12 13 13 11 10 9 8 7 7 7 7 6 5 4 3 4 5 6 6 6 7 6 5 4 4 6 7 7 9 9 9 9
2 2 1 2 2 5 8 5 1 1 5 6 7 3 6 9 12 4 17 23 26 24 23 25 26 29 31 30 32 31 31 29 26 27 31 31 29 29 30 31 31 29 28 29 29 28 27 26 25 24 24 23 22 20 19 18 17 17 16 16 15 14 13 12 12 13 13 12 11 9 8 8 7 6 6 6 6 5 4 3 4 4 5 6 7 7 7 5 4 5 6 6 7 8 8 8 9
2 1 3 3 1 4 10 7 0 1 5 2 6 2 5 8 10 2 17 22 24 23 22 25 27 30 31 31 32 31 30 28 25 27 31 32 29 28 30 30 30 29 28 28 28 28 27 26 24 23 23 24 23 20 19 19 17 16 16 16 15 14 13 12 12 13 13 12 10 8 7 7 6 6 5 5 6 6 5 4 4 4 4 5 6 8 8 6 5 6 7 7 6 7 8 8 9
3 1 2 3 2 3 6 6 3 1 2 2 2 2 4 7 8 1 16 22 20 20 20 23 27 30 32 32 32 31 29 28 28 28 30 32 30 29 29 29 29 29 28 27 27 27 26 26 25 24 23 24 22 20 20 19 17 17 17 17 16 15 14 12 11 13 13 11 9 7 6 5 6 6 6 6 6 6 6 5 5 5 5 5 6 7 8 7 7 7 7 8 7 6 7 8 8
3 2 0 3 4 2 3 4 5 6 4 4 4 1 5 8 10 4 12 23 19 18 20 22 25 30 33 33 33 32 31 31 31 30 30 32 32 30 28 26 26 27 28 27 25 25 25 24 24 24 23 23 22 20 21 19 18 18 18 17 16 15 15 12 11 12 12 10 8 6 6 5 6 6 6 6 6 6 6 6 6 6 6 6 6 7 7 8 8 8 7 8 8 7 7 7 8
2 0 1 3 3 3 3 3 5 7 6 4 6 3 7 10 11 8 8 21 21 19 23 24 24 28 33 34 34 33 33 32 31 31 31 31 32 31 28 25 25 27 29 28 25 24 24 22 22 22 22 23 22 21 21 20 20 20 19 19 17 15 15 13 12 11 11 9 8 7 6 6 7 6 6 6 7 6 6 6 6 7 7 6 6 7 7 8 8 8 8 8 8 8 7 7 8
6 4 3 3 4 5 5 4 5 4 4 6 6 6 7 8 10 7 7 19 23 22 21 22 21 25 31 34 33 33 32 31 30 30 31 31 32 32 29 27 26 27 28 27 25 25 24 22 22 22 22 22 23 23 23 22 22 21 21 20 18 16 15 13 12 10 10 9 8 8 7 8 8 7 6 7 7 6 7 7 7 7 7 6 7 6 7 8 8 8 8 8 9 9 9 8 8
5 3 2 3 5 7 3 3 6 3 1 7 7 6 7 8 10 8 8 16 19 17 17 19 21 24 31 34 33 31 28 28 29 31 32 32 32 30 28 28 27 27 27 26 26 25 24 22 23 23 22 22 24 25 24 23 23 23 22 21 19 16 15 14 12 10 9 9 9 8 8 8 7 7 7 7 6 6 7 7 7 8 8 8 8 7 8 9 8 8 9 9 9 9 9 10 10
2 2 3 4 5 7 4 3 7 3 3 5 4 3 7 9 10 9 7 10 12 17 18 20 25 27 31 34 30 27 25 25 28 30 32 32 31 30 29 28 27 27 27 27 26 25 25 25 24 23 22 23 25 24 23 22 22 21 20 19 17 15 14 13 11 10 9 9 9 8 8 8 8 7 7 6 6 6 7 7 8 9 9 9 9 8 9 9 9 9 10 10 10 10 9 11 11
2 2 1 4 4 5 6 3 3 0 3 4 5 5 8 12 11 9 7 9 15 25 29 29 31 29 31 32 27 25 26 26 29 32 33 31 31 31 29 28 27 26 26 26 26 27 27 27 26 24 23 24 25 24 22 21 20 19 17 15 15 14 13 12 10 10 10 10 9 8 7 7 7 7 6 6 6 7 7 7 8 8 9 9 8 8 9 9 9 10 10 9 10 10 10 11 12
2 3 2 4 2 1 4 4 4 3 2 5 6 6 8 9 8 7 7 11 17 23 30 34 36 34 34 33 28 28 30 30 31 33 32 32 32 31 31 30 27 25 27 28 28 29 30 30 28 24 22 23 25 24 22 19 18 17 15 14 14 13 12 12 12 11 11 10 9 8 7 7 7 6 6 6 7 7 7 8 7 7 8 8 8 8 8 8 9 10 11 10 10 10 11 12 13
3 5 5 5 3 3 7 5 5 6 4 3 2 5 6 5 5 6 6 9 12 13 19 26 28 27 27 27 26 29 33 34 36 35 34 35 35 34 33 31 28 26 27 28 30 32 32 32 28 24 23 24 24 24 22 20 18 18 17 16 16 15 14 14 14 14 12 11 10 9 8 8 7 7 6 7 7 7 8 8 7 7 8 8 9 9 8 8 9 11 11 10 10 9 9 11 12
4 5 9 9 7 8 9 3 5 5 5 3 2 4 5 5 4 6 6 7 8 6 8 15 19 18 20 25 28 31 33 35 37 38 38 39 37 36 34 32 31 31 29 29 33 34 34 33 28 23 23 25 25 24 22 20 19 19 18 18 18 17 17 16 14 13 13 12 11 9 9 8 8 7 7 7 7 8 8 7 7 7 8 8 9 9 9 8 9 11 11 10 10 10 9 10 11
4 6 9 11 9 9 8 1 3 0 3 3 4 3 5 6 5 6 6 6 7 6 2 8 16 19 22 27 31 33 34 36 37 39 39 40 39 37 36 34 32 33 33 33 34 35 35 33 27 23 25 26 25 24 22 21 20 19 18 17 17 17 17 16 14 13 13 13 12 10 9 8 7 7 6 6 6 7 7 7 7 8 8 8 8 9 9 9 9 10 11 10 10 11 11 11 11
4 5 8 9 8 8 7 4 4 4 3 4 4 4 3 5 5 6 5 4 6 7 5 3 11 19 24 29 34 36 38 40 41 41 41 41 40 38 37 35 32 31 32 32 33 34 34 31 26 24 26 26 25 24 23 21 20 19 17 17 17 16 16 15 15 14 13 12 12 11 10 9 8 8 7 7 6 6 6 6 6 7 7 7 7 8 9 9 10 10 11 11 11 11 12 12 11
6 5 7 8 7 7 6 6 5 2 1 4 5 2 2 5 6 5 4 4 6 6 5 6 5 14 22 30 35 38 40 42 43 44 44 42 41 39 36 34 32 30 31 32 32 32 32 29 26 24 26 26 24 24 23 21 20 18 17 18 18 17 16 14 14 14 12 12 12 11 11 10 9 9 7 7 6 5 5 5 5 5 6 6 7 8 9 10 10 10 11 11 11 11 11 12 12
4 5 5 3 3 3 3 5 4 1 1 5 6 2 2 4 5 5 4 4 5 6 6 6 6 13 21 29 33 36 37 40 42 42 43 42 40 37 34 33 33 31 31 32 31 30 30 29 26 25 27 26 24 23 23 22 20 19 18 18 18 18 17 15 14 13 12 12 12 11 10 10 10 9 7 6 6 6 6 6 5 5 5 6 7 8 8 8 9 9 10 11 11 11 12 13 13
2 4 4 4 4 3 3 2 3 3 2 7 7 5 4 3 5 3 1 3 5 6 6 6 7 14 21 27 31 36 37 38 40 40 40 40 39 36 34 34 33 31 31 32 31 30 29 29 27 25 25 26 25 24 23 22 21 20 19 18 18 17 17 15 15 14 13 13 12 11 10 10 9 8 7 5 4 5 6 6 6 6 6 7 7 7 7 7 7 7 8 9 9 11 12 13 13
2 3 3 3 2 3 4 4 3 3 5 7 5 5 6 3 5 3 4 6 7 7 7 7 6 12 19 25 30 34 35 33 32 31 28 26 29 31 31 32 31 29 29 29 30 29 28 29 28 24 24 26 27 26 25 23 21 20 19 18 17 16 15 13 12 12 13 12 11 10 9 8 6 5 4 4 4 4 6 7 7 7 7 7 7 7 7 7 7 7 6 7 8 9 10 12 13
4 3 4 3 1 2 2 3 0 2 6 5 2 3 4 4 5 4 6 6 6 6 6 6 6 9 12 17 23 25 23 20 18 19 17 16 21 25 26 28 28 26 26 27 29 29 27 28 28 25 25 27 28 27 26 23 21 20 18 17 16 14 12 10 9 10 11 11 10 8 6 4 3 3 2 2 3 5 5 6 7 7 6 6 5 6 9 9 7 7 6 6 7 7 8 10 11
5 5 5 4 2 2 1 3 1 3 5 3 1 2 2 4 3 3 7 6 6 5 3 5 7 8 10 10 15 15 13 12 10 12 17 19 23 24 22 24 26 25 24 25 27 28 28 28 27 27 27 28 28 27 25 22 20 18 17 17 15 13 11 8 7 8 10 10 8 5 3 3 2 2 1 0 2 3 4 4 6 6 6 5 3 3 7 10 8 7 7 7 7 7 8 9 10
5 4 5 5 4 4 3 4 3 4 4 3 3 0 2 2 2 3 6 5 3 4 3 4 3 11 16 14 16 20 23 21 16 16 21 22 22 22 20 20 22 23 22 22 23 25 26 25 25 26 26 26 26 26 25 22 19 18 17 15 13 11 9 6 5 7 9 9 7 5 3 3 2 2 1 0 1 1 1 2 3 5 5 5 3 2 5 9 9 8 7 7 7 8 8 9 10
3 3 4 2 5 5 2 3 4 3 1 2 3 1 2 3 4 4 4 3 3 8 8 10 12 14 19 19 18 18 18 19 20 21 24 23 21 21 21 20 20 20 19 19 20 21 22 20 20 22 22 22 22 23 23 21 19 18 16 14 12 11 9 7 6 9 9 7 5 4 3 2 2 2 2 1 1 1 1 1 2 3 4 4 4 3 4 6 8 8 8 7 7 8 8 8 9
1 3 4 4 4 7 4 2 0 3 1 3 1 2 4 3 3 3 1 2 5 8 9 11 13 13 16 18 22 21 13 10 15 17 19 20 19 20 21 20 19 19 18 17 17 16 17 16 16 18 17 18 20 20 18 17 17 17 15 13 13 11 8 7 7 9 9 7 6 5 3 2 2 2 2 2 1 2 2 3 3 3 4 5 5 4 4 5 7 8 7 7 7 8 8 8 8
4 3 5 2 2 4 4 2 3 4 2 4 1 1 4 1 1 3 3 3 5 7 7 9 14 17 15 8 15 23 17 11 10 10 12 14 15 16 17 16 17 18 17 17 15 12 12 13 15 15 12 13 16 17 18 18 18 16 15 14 12 10 8 8 9 9 8 8 8 6 4 3 2 0 1 2 2 2 2 4 6 5 5 5 6 5 5 5 6 7 7 6 6 7 8 7 7
3 4 4 3 2 1 1 2 1 1 2 3 2 2 2 2 3 1 2 3 5 7 8 9 11 13 11 4 5 11 14 11 8 7 8 9 10 11 11 12 14 15 15 15 13 10 10 11 10 6 7 11 15 17 18 19 19 16 15 14 12 11 11 11 11 11 10 9 9 7 4 3 2 1 2 3 4 3 2 4 6 7 6 7 7 6 5 5 6 7 6 5 5 6 6 6 6
3 3 2 2 2 4 2 2 3 3 3 2 2 2 3 4 4 1 1 3 5 7 9 9 8 10 12 11 7 8 9 8 6 6 6 8 9 8 8 7 7 10 12 12 11 9 10 11 8 5 9 15 18 18 18 18 19 17 15 14 14 14 13 11 11 10 10 10 9 6 4 3 2 1 3 4 5 4 3 4 6 7 7 8 8 6 5 5 7 7 6 5 5 6 6 5 4
2 2 2 1 1 2 1 1 2 3 4 3 1 1 5 5 2 1 2 1 4 7 8 8 9 11 13 14 13 11 11 8 6 7 7 8 8 7 8 8 7 7 8 9 9 10 11 11 8 8 12 16 18 18 19 19 19 18 16 15 15 14 13 11 10 10 12 12 9 6 4 3 2 2 3 5 5 4 3 4 5 6 7 8 9 7 6 7 7 8 7 6 6 7 7 5 4
4 4 4 3 3 4 3 1 1 2 3 3 4 2 6 4 1 1 1 2 3 8 9 8 12 16 16 16 15 13 12 8 9 11 9 9 8 7 7 6 7 7 5 7 8 10 13 13 10 9 11 15 17 18 18 19 18 17 16 15 15 15 12 10 10 12 14 13 9 5 3 2 2 2 4 4 3 3 3 4 5 6 6 7 8 7 7 7 7 8 8 7 7 7 6 5 5
Wind_Direction
181 176 158 146 139 136 134 128 117 345 78 271 267 218 256 235 234 279 283 302 276 306 7 356 315 191 157 128 143 122 89 145 163 147 188 156 147 159 161 161 166 165 165 166 168 170 173 175 174 173 171 169 167 163 156 149 147 145 144 147 151 157 159 160 160 161 164 162 156 152 149 146 143 140 138 140 145 146 144 141 133 126 126 126 125 124 124 124 122 121 120 118 114 111 110 107 101
173 166 151 142 138 140 148 109 105 338 47 291 268 182 253 267 219 235 214 217 242 321 345 360 25 91 98 98 109 102 68 64 146 132 136 143 150 157 160 164 167 168 168 168 169 170 173 174 174 174 171 169 168 163 157 152 150 149 148 147 147 153 158 160 161 162 161 157 151 148 147 142 140 137 135 142 152 150 147 144 136 130 128 128 129 130 130 128 125 123 121 119 116 113 110 106 102
165 156 147 141 134 133 133 76 85 87 101 249 271 224 242 211 223 229 200 227 289 319 302 285 322 0 337 80 79 83 98 54 140 136 138 150 155 157 162 167 168 171 172 170 170 171 173 173 173 173 170 169 168 164 160 156 154 153 150 146 143 145 152 157 157 157 155 152 148 148 149 144 144 143 143 153 161 152 148 145 138 134 129 130 134 135 134 130 128 124 123 122 119 115 111 105 98
158 150 145 141 129 109 104 57 128 128 178 228 272 255 227 219 251 302 252 270 312 312 281 264 323 4 353 81 63 55 121 151 153 145 147 157 160 158 163 168 169 174 175 172 171 173 174 172 173 172 169 169 168 167 163 159 157 156 151 144 140 140 146 152 153 149 145 144 142 145 148 146 145 147 153 162 162 150 145 142 137 134 130 132 138 138 135 131 129 127 126 125 122 118 113 106 96
153 145 144 145 136 114 99 74 122 142 211 196 250 257 233 233 276 294 286 305 314 307 262 213 336 10 35 61 11 44 130 154 154 151 152 157 161 159 163 168 170 175 175 172 172 173 174 172 172 171 169 169 170 170 166 161 159 158 152 145 140 140 144 149 151 145 137 136 136 139 143 146 148 152 162 164 156 148 145 142 135 132 132 135 140 141 136 133 131 130 131 128 124 119 112 104 96
149 139 135 130 115 123 117 117 198 230 224 175 236 266 253 234 267 287 302 313 312 311 217 177 112 51 51 23 11 107 119 145 157 157 154 155 162 161 162 168 172 176 174 171 172 173 173 172 171 170 170 171 173 172 167 163 161 158 151 145 142 140 144 150 153 145 137 139 142 142 143 148 152 154 158 151 144 146 143 136 129 126 134 138 142 143 139 137 135 134 134 130 126 120 115 106 99
147 135 125 113 80 76 118 173 220 243 250 187 209 272 276 267 290 301 310 320 322 5 138 150 134 110 67 8 34 119 82 175 164 159 155 155 161 163 163 169 174 175 173 172 172 172 170 170 170 171 172 173 174 172 168 165 162 158 150 145 143 144 145 150 152 145 140 143 146 145 145 146 148 147 144 139 140 145 134 127 124 124 136 142 145 146 142 142 140 138 135 129 127 122 118 109 102
147 133 111 114 47 33 105 225 243 223 251 229 234 264 272 282 291 295 296 299 302 307 135 143 144 121 83 303 16 200 279 183 168 160 157 156 161 164 166 171 174 173 172 172 170 169 168 169 172 173 174 174 174 172 169 167 164 157 151 145 144 146 145 146 147 142 141 145 144 144 146 144 144 144 140 138 140 140 131 130 130 130 140 146 148 147 144 143 141 139 135 131 130 126 121 110 104
145 124 103 99 111 48 17 276 270 231 247 263 266 266 272 285 285 276 273 264 266 277 207 161 154 133 140 129 140 203 201 181 168 160 158 158 161 162 167 172 173 173 171 170 169 169 168 170 174 175 175 175 174 172 170 167 165 158 153 147 143 145 142 142 142 139 139 140 140 141 144 144 146 147 144 142 141 138 135 137 134 134 141 146 147 147 145 143 142 141 138 137 135 131 126 113 107
136 111 123 83 114 27 313 272 260 246 259 263 273 276 281 288 286 266 258 267 254 258 222 180 163 127 136 125 130 181 199 173 161 158 160 163 164 164 168 172 173 174 170 167 169 169 169 171 174 175 175 175 174 172 170 168 165 161 155 147 140 141 139 139 138 135 134 135 138 141 143 143 144 144 142 139 134 130 131 132 129 132 140 147 149 149 148 147 146 145 143 144 142 138 132 120 110
121 81 114 78 90 200 249 259 265 269 283 289 287 281 291 299 294 272 247 258 248 236 195 181 157 126 127 116 139 181 182 162 161 160 164 169 171 171 171 171 172 173 170 168 169 170 170 172 174 176 176 175 174 171 169 169 167 161 154 145 139 140 138 139 138 136 136 138 140 141 139 137 136 134 133 130 126 123 122 125 126 132 143 150 153 153 152 151 151 150 150 150 150 147 143 133 118
115 45 84 91 142 199 215 259 267 290 301 291 284 293 335 322 307 296 262 240 227 211 186 184 163 137 117 92 153 186 173 165 167 163 166 171 174 174 171 170 169 168 169 171 170 171 171 172 174 175 176 175 173 170 171 170 166 161 154 146 140 142 140 140 141 141 142 142 140 135 131 128 128 127 127 127 124 124 120 119 121 130 143 150 155 157 156 155 155 154 155 158 159 158 156 150 134
136 135 88 120 183 197 202 243 273 314 311 266 250 320 345 326 314 319 294 235 184 169 187 183 158 137 108 124 163 180 173 170 168 164 165 169 173 172 170 168 168 169 171 174 173 172 173 173 174 174 175 174 172 170 172 170 167 165 156 146 142 144 142 143 145 145 144 140 135 130 128 127 125 124 122 122 121 126 126 122 120 125 137 147 154 159 159 158 158 159 161 164 166 165 163 162 157
142 143 111 139 209 191 196 239 286 303 278 269 260 337 345 337 333 342 1 129 184 168 173 169 152 128 116 143 165 178 172 168 165 164 167 169 172 169 168 168 168 171 174 176 176 175 175 175 174 174 174 172 171 171 171 169 168 166 156 148 145 146 145 147 149 148 146 139 135 132 130 130 128 127 122 121 122 126 130 130 130 130 134 143 153 159 163 163 163 165 166 169 171 171 171 173 181
146 121 103 114 263 275 221 208 221 189 254 271 0 349 347 347 353 8 29 54 264 165 150 157 157 136 164 170 178 179 170 166 165 165 169 170 170 168 169 170 170 174 176 178 177 177 177 175 173 174 174 172 173 171 169 168 168 164 156 152 148 148 150 152 151 148 147 141 139 136 131 132 132 131 126 127 131 132 135 136 141 140 137 143 152 160 165 168 168 169 170 173 175 177 180 183 194
149 102 81 99 238 243 218 191 178 193 263 258 341 355 351 343 3 25 10 344 153 150 142 151 164 150 187 180 178 172 164 164 166 166 170 169 169 170 172 173 174 175 176 178 176 178 178 175 174 175 174 173 174 170 170 169 167 163 158 155 151 152 154 154 153 150 151 147 144 141 136 138 138 137 135 135 135 133 132 133 137 135 134 142 151 162 169 173 173 174 175 176 179 183 188 191 197
146 103 78 70 220 209 208 193 177 201 272 286 334 354 354 330 352 21 26 102 121 152 140 143 175 237 190 182 172 165 159 163 165 166 170 169 170 171 173 174 175 173 172 175 174 175 177 176 175 176 175 174 174 170 171 171 167 166 161 159 156 156 156 156 157 156 158 154 149 145 142 143 144 146 145 138 131 129 128 128 129 128 131 136 142 155 167 175 178 179 180 181 184 186 191 195 198
139 107 118 209 214 207 188 184 198 215 299 312 322 342 355 322 338 345 0 71 64 145 117 125 173 214 177 171 162 160 157 162 163 167 169 167 168 167 172 174 172 170 170 173 175 176 177 178 176 176 176 176 175 173 174 172 170 170 166 164 159 158 160 159 161 160 160 157 151 149 146 145 146 149 143 135 131 131 132 130 130 130 132 134 137 144 156 171 180 184 186 187 188 190 194 197 200
157 101 141 227 207 208 200 193 250 292 293 303 311 331 341 314 324 326 302 0 359 15 95 113 123 130 151 156 157 158 155 160 161 164 164 160 165 169 173 175 174 174 175 175 175 178 178 177 177 176 177 177 177 176 176 174 173 170 169 167 163 162 164 164 163 160 158 156 153 151 149 146 144 145 141 137 137 137 136 133 133 133 134 134 138 143 148 160 172 183 189 192 193 195 197 200 204
198 127 174 242 198 214 251 261 277 289 290 298 310 321 326 320 326 322 289 138 341 250 175 133 134 138 143 151 154 153 153 158 158 159 162 162 170 175 174 177 182 180 178 178 177 179 179 177 177 178 178 178 179 179 178 178 175 171 170 170 168 167 168 165 164 161 159 157 155 155 155 151 148 147 143 140 140 140 137 132 130 129 134 137 139 145 149 155 164 174 184 193 197 199 200 202 205
196 164 213 235 150 235 273 292 291 298 299 291 303 316 320 323 331 326 324 134 272 236 214 183 153 151 145 149 153 155 160 162 164 167 172 173 177 181 181 184 186 183 182 182 180 182 182 179 180 180 179 180 182 181 180 180 176 172 173 174 172 170 169 164 164 165 163 160 160 162 161 156 150 147 144 142 139 136 133 129 130 132 139 144 146 148 155 164 164 167 176 187 197 201 201 202 205
169 222 243 251 265 289 290 309 303 299 299 298 304 314 311 313 316 308 291 205 251 262 223 184 152 155 151 154 157 161 168 168 169 172 174 176 180 182 186 191 188 187 189 187 184 186 187 183 183 183 181 182 184 182 182 181 178 175 176 177 175 172 168 164 167 171 169 166 166 164 162 156 147 144 144 143 139 135 135 134 135 137 142 149 155 150 153 161 161 165 174 182 192 199 200 200 202
228 254 255 259 263 263 280 293 296 296 296 300 295 294 302 306 309 298 269 240 262 315 253 170 151 157 159 161 165 170 175 174 175 174 173 175 179 181 185 195 194 190 192 191 188 191 191 187 186 186 185 185 185 182 182 183 181 179 178 178 177 175 168 165 169 174 174 171 167 161 156 151 144 144 146 144 140 137 138 141 143 140 139 152 157 145 143 150 154 162 172 179 186 194 197 198 201
219 261 273 271 268 258 274 284 289 295 289 288 291 295 297 286 300 299 270 267 270 287 239 169 152 158 165 167 173 178 179 178 180 179 176 175 177 180 181 190 195 192 193 193 194 196 193 189 188 189 190 188 185 183 184 185 184 181 180 179 178 178 171 169 172 176 178 173 168 162 155 150 146 147 150 151 148 145 145 149 150 144 145 160 161 146 143 151 157 161 166 176 183 188 193 197 201
216 250 278 279 274 265 277 287 288 292 288 291 297 287 285 279 283 279 272 283 272 236 189 164 153 160 169 173 178 181 182 183 185 182 179 180 181 184 183 187 191 190 193 195 196 197 195 193 189 191 191 188 185 184 186 187 185 184 183 181 179 179 177 177 180 182 183 177 171 165 158 154 154 153 154 157 155 151 151 155 155 152 160 173 170 160 158 163 164 163 165 174 182 184 189 196 202
220 233 259 267 270 275 283 287 287 291 288 292 301 279 288 301 291 268 278 286 239 178 163 159 156 162 171 176 181 184 187 189 189 183 179 185 187 189 190 192 194 191 193 196 198 197 197 197 192 192 190 188 187 186 188 189 188 187 185 184 182 180 180 182 185 186 186 181 174 168 161 158 160 158 156 159 158 154 155 162 167 168 178 189 185 177 175 181 183 181 179 179 184 185 187 192 199
247 248 260 263 269 281 283 278 284 289 286 281 267 271 283 11 135 261 275 248 170 157 152 157 159 165 173 178 183 188 191 191 189 185 180 184 187 186 188 193 198 194 193 197 199 199 199 199 195 193 190 189 190 189 191 191 190 190 187 187 184 183 184 184 188 190 187 183 177 172 165 163 166 165 161 163 161 158 159 167 177 183 190 194 195 194 188 193 197 198 195 190 191 190 191 191 194
274 281 278 277 282 289 273 255 275 278 282 276 245 262 289 133 184 252 237 177 164 156 151 159 164 170 177 180 185 190 194 192 192 190 183 183 185 185 187 191 195 194 193 198 200 201 201 201 198 194 192 192 193 193 193 192 191 191 191 189 186 186 186 186 191 192 188 185 181 176 171 170 172 170 166 166 163 163 168 175 183 191 196 195 197 198 193 192 195 198 200 197 199 198 198 197 195
283 288 281 296 322 315 276 244 265 250 250 272 235 289 307 215 220 246 192 164 161 156 154 161 168 175 178 181 189 193 197 197 196 194 186 186 186 186 189 189 192 194 195 200 201 202 203 203 201 196 194 196 197 197 195 192 190 191 193 191 188 189 187 189 194 192 190 189 184 180 177 176 176 179 180 174 168 168 177 185 191 194 196 196 196 195 192 192 194 197 199 201 204 202 202 203 200
292 284 189 317 345 322 295 281 285 261 242 251 187 267 290 260 261 232 165 164 159 155 159 165 169 175 178 184 192 197 201 200 200 198 190 189 188 189 193 193 194 195 196 201 204 204 206 205 203 200 197 197 197 199 198 194 191 191 193 191 191 190 188 192 196 193 193 191 185 184 183 182 183 188 189 185 180 177 176 183 192 191 192 198 201 199 195 195 200 197 198 204 207 202 199 201 200
309 290 266 351 352 283 304 327 337 0 273 227 166 223 272 271 288 220 168 171 162 161 168 171 172 176 182 189 193 199 203 202 204 199 191 191 191 191 197 199 200 200 199 203 206 206 208 208 205 204 202 198 197 199 197 194 194 193 192 193 192 191 190 195 197 195 194 190 186 187 187 188 190 191 189 190 192 190 184 184 191 188 191 201 209 212 210 207 208 204 199 201 204 200 195 195 193
15 296 303 344 168 268 309 321 5 248 285 184 143 232 279 269 294 203 174 178 166 167 173 176 179 179 185 194 196 200 203 203 202 198 195 194 194 194 198 202 204 205 206 208 209 209 211 212 208 207 205 200 197 197 196 193 194 193 192 193 193 192 191 194 197 195 193 191 187 187 188 192 195 196 196 197 199 199 199 205 207 203 205 207 212 218 219 215 210 206 203 196 193 196 193 189 186
5 67 275 302 274 291 319 320 339 344 293 5 88 230 291 277 299 73 171 182 175 172 178 182 185 184 189 197 199 200 203 203 202 202 202 197 195 196 199 203 206 209 211 212 213 212 213 215 212 211 209 204 199 196 194 192 192 192 191 191 192 193 191 193 196 195 194 191 187 187 190 198 202 204 208 207 205 206 210 217 221 222 222 216 212 214 220 216 204 199 203 196 184 187 193 188 182
327 15 303 265 260 272 310 300 328 20 45 352 359 196 258 270 287 310 177 186 184 180 187 188 188 189 192 198 202 204 204 204 206 208 207 202 198 198 201 206 209 211 213 215 217 216 216 219 216 214 211 206 200 195 192 191 191 189 188 189 189 190 192 195 195 194 195 193 191 195 199 205 209 212 214 211 209 212 216 218 221 226 223 215 209 209 215 210 198 192 194 195 183 174 183 183 179
198 132 35 288 283 248 233 257 306 3 20 335 342 296 259 268 279 292 205 192 191 192 195 193 192 192 194 199 203 205 207 206 208 209 208 207 203 201 204 205 207 212 214 215 218 218 219 221 219 213 209 205 198 193 192 191 190 187 185 186 186 188 192 193 191 190 190 192 196 200 202 209 215 219 216 211 212 212 215 219 218 221 216 211 209 207 208 201 195 191 183 187 183 166 169 180 184
157 168 171 230 280 268 225 224 269 325 353 306 295 269 264 277 278 279 215 198 199 203 200 196 196 194 195 200 203 206 206 204 207 210 210 210 206 203 205 204 205 211 216 217 218 218 219 221 215 207 203 200 194 191 192 191 188 186 184 185 185 187 189 187 184 184 185 190 198 201 206 212 215 219 213 208 212 209 213 218 213 210 209 210 212 205 201 196 193 191 179 179 181 169 167 180 191
141 163 213 233 255 276 250 226 258 215 244 278 258 249 265 272 273 271 220 202 205 204 198 198 199 196 195 200 205 205 200 200 205 211 211 210 207 204 204 208 209 211 216 220 220 220 222 222 213 204 198 194 191 190 191 190 187 185 185 186 185 186 186 184 181 183 187 193 197 200 204 205 205 208 206 205 210 210 215 220 211 206 208 210 210 205 200 196 191 190 180 174 179 177 172 180 193
139 192 271 277 244 269 285 245 256 202 169 260 270 301 286 270 270 271 224 195 208 205 194 197 200 198 198 200 203 198 192 195 203 211 211 208 208 206 205 208 211 213 215 218 219 219 223 222 214 204 195 191 189 188 189 189 188 188 188 186 184 183 183 181 180 184 190 193 194 193 192 190 191 195 199 203 206 207 210 219 215 208 208 210 210 208 200 193 192 191 184 176 179 182 179 184 192
150 141 234 274 253 286 300 277 278 104 151 260 309 327 287 276 274 270 227 203 221 213 200 199 200 198 199 199 195 187 184 189 200 209 208 206 209 207 205 205 209 214 216 218 219 220 222 221 214 203 194 190 185 185 188 188 190 190 188 185 182 179 179 179 179 184 188 189 189 186 181 179 182 186 190 195 199 200 199 204 208 201 201 204 203 205 196 190 190 189 186 180 180 183 185 189 192
163 156 183 261 266 345 292 295 328 328 244 253 293 306 282 284 295 287 250 241 247 229 209 205 202 199 200 197 190 182 181 186 199 207 204 204 208 206 202 201 203 208 216 220 220 221 222 220 214 200 190 189 185 184 186 188 190 187 182 181 179 178 180 181 180 184 186 185 183 180 177 175 178 182 186 191 192 192 187 185 187 185 187 189 189 194 194 192 193 190 187 183 183 188 190 191 192
245 204 203 242 244 207 240 281 338 326 305 249 292 330 300 303 322 305 290 286 280 248 215 208 206 202 197 190 185 184 186 190 197 200 199 203 208 204 200 198 195 198 208 216 218 219 219 219 213 196 187 189 186 185 186 188 189 183 179 179 180 180 181 184 184 183 181 177 175 175 176 177 180 183 182 184 182 179 177 175 176 176 177 181 182 185 187 191 194 194 193 186 185 192 197 198 195
288 232 211 220 220 227 243 286 11 357 334 300 41 23 301 307 320 290 314 338 322 290 217 203 199 191 181 177 180 184 188 193 198 199 197 202 207 204 199 197 197 200 204 209 214 216 216 216 210 192 187 190 187 187 188 188 186 183 183 183 185 183 181 184 183 178 173 170 171 173 176 179 181 181 179 178 176 176 179 182 184 177 175 179 182 186 185 187 192 195 197 193 189 190 199 207 204
280 241 206 209 212 230 247 239 76 85 266 294 51 95 267 306 325 293 316 351 344 346 336 195 185 175 171 174 177 180 185 190 197 200 199 201 205 203 198 197 201 208 211 211 213 215 214 213 206 191 190 191 188 188 188 187 185 183 185 189 190 185 183 181 172 164 165 167 169 171 174 178 179 179 178 178 178 182 189 196 195 183 178 180 184 191 192 191 192 194 200 202 200 198 198 205 209
251 231 178 186 200 220 226 159 164 232 261 317 18 123 229 295 287 286 321 8 359 359 355 252 189 174 171 174 177 182 187 191 196 199 200 203 204 202 198 197 201 210 215 217 215 214 213 211 204 194 193 191 188 188 188 187 186 184 185 189 190 184 182 177 164 160 164 165 167 168 174 178 178 179 176 177 180 186 193 197 197 192 187 185 184 189 195 199 196 197 204 208 210 210 204 203 209
245 209 163 175 185 196 193 162 192 248 353 310 307 139 202 274 272 303 358 33 355 340 333 311 215 179 174 175 179 187 192 195 197 198 199 201 202 200 197 199 204 208 214 221 219 216 215 211 203 198 196 192 189 188 188 188 187 185 185 189 187 180 180 177 168 166 167 167 169 171 176 180 180 179 178 184 194 206 211 205 203 202 196 193 192 192 197 205 206 207 215 217 217 219 213 207 209
227 160 141 131 116 132 141 147 168 79 30 257 252 191 198 272 288 326 13 33 335 312 316 302 221 184 180 178 183 189 193 195 197 198 200 200 198 197 196 200 206 209 213 220 221 218 216 210 203 203 200 194 190 190 191 190 187 185 187 190 185 179 179 178 175 173 171 173 176 176 178 179 178 177 178 188 200 214 222 217 214 212 203 199 199 197 195 202 209 213 220 223 222 223 220 214 213
153 110 102 68 47 50 75 94 101 89 276 252 229 195 182 263 290 295 308 312 290 283 297 279 212 189 187 185 187 191 193 194 195 197 200 199 197 198 199 203 208 211 214 219 221 220 216 210 206 206 203 196 191 192 194 192 188 185 188 189 183 180 181 178 178 177 175 179 180 180 181 180 178 174 171 165 165 192 206 208 211 208 205 203 201 196 187 187 200 210 217 221 222 223 221 218 218
117 79 89 84 334 20 41 356 49 107 255 259 231 182 160 213 258 259 276 278 270 263 263 258 218 195 192 188 188 191 192 193 192 193 196 195 196 201 204 206 211 216 218 218 219 220 218 214 212 209 204 199 194 194 194 192 188 187 188 187 181 180 179 175 177 177 175 179 181 183 184 180 174 165 154 133 124 156 184 197 205 200 196 200 204 206 200 192 194 203 214 218 220 222 220 219 220
129 119 100 101 310 21 27 304 52 197 250 256 224 153 154 226 237 269 303 293 282 262 237 254 248 206 189 184 184 186 186 182 182 189 192 193 197 203 209 211 213 221 224 220 219 221 222 221 218 212 205 200 195 193 193 191 188 186 188 185 178 177 178 173 175 176 174 177 179 181 180 171 162 154 137 108 110 131 158 182 198 200 199 200 207 217 212 204 197 200 209 212 213 217 218 223 225
151 152 143 145 130 86 271 269 259 262 264 276 293 152 204 272 249 278 307 307 303 295 257 288 274 191 160 156 158 146 126 116 126 163 177 193 207 210 215 217 220 224 224 223 223 223 226 226 220 214 210 204 197 192 190 188 185 185 187 183 174 174 177 175 179 182 178 174 170 164 153 134 125 121 84 63 118 124 135 154 176 192 208 215 223 228 212 204 199 199 206 209 211 214 215 218 222
168 165 139 148 157 150 204 224 212 255 271 307 323 163 186 248 248 266 296 308 336 12 37 33 64 129 128 117 114 107 101 105 121 156 178 198 214 218 221 224 224 224 223 223 225 225 227 227 223 219 214 208 199 191 188 186 182 183 186 180 174 177 180 182 190 189 183 174 160 144 140 128 99 86 72 79 124 123 131 139 156 181 205 222 240 252 217 206 201 199 203 211 216 216 215 214 215
204 143 109 157 186 154 151 195 177 181 246 315 315 268 217 232 264 278 300 323 60 61 58 73 81 100 112 110 108 104 102 121 150 176 194 204 211 218 227 231 228 225 221 220 224 228 230 228 225 219 210 204 199 190 186 184 178 180 186 183 181 184 187 193 195 191 187 172 152 151 153 136 102 87 78 63 8 295 251 216 191 198 211 227 245 261 244 220 208 203 203 210 216 218 219 217 215
183 128 171 217 176 129 119 210 88 83 153 279 311 280 300 318 301 300 350 29 71 70 57 64 67 74 93 113 127 125 116 135 161 181 196 202 207 219 231 236 232 226 217 216 222 233 240 239 230 219 206 199 196 187 181 182 180 181 188 188 185 183 188 198 196 192 187 169 162 173 173 158 129 86 64 50 349 288 255 232 220 222 226 233 240 246 251 240 221 211 208 208 211 213 214 215 215
129 176 205 190 94 92 110 169 7 47 206 271 330 254 298 342 291 320 42 62 60 70 70 63 59 57 56 77 126 131 140 164 176 183 188 191 204 219 228 230 228 224 218 216 219 233 248 242 227 220 209 197 193 184 177 181 184 184 185 184 181 180 185 191 191 194 191 177 176 182 174 160 150 52 3 356 330 305 255 231 227 230 231 229 230 227 234 239 227 217 214 207 203 204 208 214 218
141 176 169 112 121 179 93 145 147 123 219 286 319 264 262 207 221 299 47 50 46 63 77 78 75 77 75 75 136 137 146 158 168 180 186 186 195 208 218 222 223 222 221 218 216 231 250 242 231 222 198 189 190 186 179 182 187 186 183 182 181 182 182 183 188 195 194 185 183 179 165 160 172 261 309 315 317 315 272 236 232 234 230 219 215 210 210 219 214 209 209 205 197 197 204 215 228
51 117 118 54 136 166 165 150 157 163 181 255 309 312 263 231 219 207 352 11 54 75 78 81 90 94 94 101 117 132 131 127 143 176 188 187 188 192 189 185 200 212 217 216 212 222 244 255 260 229 193 187 187 186 186 188 190 188 186 186 186 184 181 182 188 197 194 186 183 175 160 166 189 250 299 304 309 308 274 239 231 235 231 214 206 197 185 191 194 193 195 195 190 192 201 208 226
92 142 188 298 86 138 152 94 98 129 149 178 188 305 269 250 219 265 301 24 87 94 83 75 83 87 91 97 103 114 117 112 138 172 191 191 184 187 180 166 175 203 220 219 213 212 222 240 244 207 195 193 187 184 188 191 191 193 193 191 190 187 185 188 193 193 188 182 179 168 164 187 206 242 288 302 301 288 248 226 223 229 220 202 198 192 178 174 178 185 189 191 188 186 192 200 209
169 176 186 179 142 124 135 251 301 101 126 165 159 201 271 261 160 289 277 136 124 108 103 89 80 83 91 99 104 113 118 121 141 151 169 189 184 179 182 179 182 190 196 198 204 209 212 225 227 196 188 194 188 182 188 195 199 202 200 196 195 192 190 194 195 189 184 182 178 162 166 205 222 256 286 286 262 228 207 207 216 221 207 191 190 187 181 175 179 188 190 194 193 180 179 192 200